Main page
METAR-TAF:

METAR-TAF

Airports :

Lago Agrio Airport

Nueva Loja, Ecuador

latitude: 00-05-33N, longitude: 076-52-10W, elevation: 299 m

Current weather observation

The report was made 50 minutes ago, at 15:00 UTC
Wind 2 kt from the Southeast
Temperature 29°C
Humidity 74%
Pressure 1015 hPa
Visibility 10 km or more
Few clouds at a height of 2000 ft
Broken clouds at a height of 10000 ft

METAR: SENL 251500Z 13002KT 9999 FEW020 BKN100 29/24 Q1015 RMK A2999

Time: 10:50 (15:50 UTC)


TAF: missing

Weather observations and forecasts of more than 4000 airports (METAR and TAF reports).

The available stations are represented by yellow and red dots on the map.

Hover mouse over dot to see the name of the station.

Then click to see weather observations and forecasts.

To change the map : click on the green buttons with a black cross to zoom in, on the green button with a dash to zoom out, or on the green arrows for adjacent maps.


METAR-TAF: